Location: Koussan�
(15.2012°N, 12.5548°W)
Time: 17:54:15
(UTC+00:00)

CZ-4 R/B - Pass Details

Date: 20 October 2020
Orbit: 579 x 590 km, 97.8° (Epoch: 30 November)

Event Time Altitude Azimuth Distance (km) Brightness Sun altitude
Rises 19:22:30 0° 164° (SSE) 2,797 7.8 -14.1°
Reaches altitude 10° 19:24:39 10° 162° (SSE) 1,900 7.0 -14.7°
Maximum altitude 19:28:45 73° 78° (ENE) 614 4.3 -15.6°
Drops below altitude 10° 19:32:53 10° 354° (N) 1,907 7.1 -16.6°
Sets 19:35:03 0° 352° (N) 2,809 8.0 -17.1°
